Flag for Germany Weather past 2 weeks in Landshut, Bavaria, Germany

Now
61 °F

Cool.


Feels Like: 61 °F
Forecast: 46 / 59 °F
Wind: 7 mph from North

Location: Erding Airport

Current Time: Oct 20, 2014 at 8:28:24 PM

Latest Report: Oct 20, 2014 at 7:20 PM


Visibility: 2 mi

Pressure: 30.07 "Hg

Humidity: 94%

Dew point: 59 °F

Location of LandshutLocation

Historic Weather in Landshut — Graph

°F

Landshut temperature yesterday

Maximum temperature yesterday: 73 °F (at 3:20 PM)
Minimum temperature yesterday: 41 °F (at 7:20 AM)
Average temperature yesterday: 57 °F

Past Weeks' High & Low Weather Summary

 TemperatureHumidityPressure
High75 °F (Oct 9, 2:20 PM)100% (Oct 6, 7:20 AM)30.27 "Hg (Oct 6, 7:20 AM)
Low41 °F (Oct 19, 7:20 AM)44% (Oct 9, 2:20 PM)29.77 "Hg (Oct 17, 7:20 AM)
Average57 °F89%29.96 "Hg
* Reported Oct 6 7:20 AM — Oct 20 7:20 PM, Landshut, Weather by CustomWeather, © 2014

Note: Actual official high and low records may vary slightly from our data, if they occured in-between our weather recording intervals... More about our weather records

Advertising

Landshut weather history for previous 24 hours

 ConditionsComfort  
Time TempWeatherWind HumidityBarometerVisibility
7:20 PM
Oct 20
61 °FCool.7 mph94%30.07 "Hg2 mi
6:20 PM64 °FMild.6 mph78%30.04 "Hg2 mi
5:20 PM66 °FMild.6 mph73%30.04 "Hg2 mi
4:20 PM68 °FBroken clouds.7 mph69%30.04 "HgN/A
3:20 PM70 °FBroken clouds.10 mph60%30.07 "HgN/A
2:20 PM72 °FScattered clouds.10 mph57%30.09 "HgN/A
1:20 PM72 °FScattered clouds.7 mph61%30.09 "HgN/A
12:20 PM68 °FPartly sunny.7 mph64%30.12 "HgN/A
11:20 AM66 °FScattered clouds.6 mph68%30.12 "HgN/A
10:20 AM63 °FScattered clouds.5 mph73%30.15 "HgN/A
9:20 AM61 °FScattered clouds.3 mph72%30.15 "HgN/A
8:20 AM59 °FPassing clouds.5 mph77%30.15 "HgN/A
7:20 AM59 °FPassing clouds.6 mph77%30.15 "HgN/A
5:20 AM57 °FCool.6 mph77%30.15 "Hg2 mi
4:20 AM61 °FCool.6 mph68%30.15 "Hg2 mi
3:20 AM59 °FCool.3 mph72%30.15 "Hg2 mi
2:20 AM59 °FCool.5 mph72%30.15 "Hg2 mi
1:20 AM55 °FCool.3 mph82%30.15 "Hg2 mi
12:20 AM59 °FCool.5 mph72%30.15 "Hg2 mi
11:20 PM
Oct 19
59 °FCool.6 mph72%30.15 "Hg2 mi
10:20 PM57 °FCool.3 mph77%30.15 "Hg2 mi
9:20 PM59 °FCool.5 mph72%30.15 "Hg2 mi
8:20 PM64 °FMild.5 mph60%30.15 "Hg2 mi
Weather by CustomWeather, © 2014

See weather overviewHow to use our weather pages